CW5053 Weather Reports


time (UTC)temp
C
wind
direction
speed
KPH
gust
KPH
rain 1hr
cm
rain 24hr
cm
rain mn
cm
humidity
%
barometer
mb
20260506003223 15 248 3.2 6.4 0.00 0.03 0.03 81 1016.8
20260506003046 15 285 3.2 4.8 0.00 0.03 0.03 81 1016.6
20260506002731 15 265 1.6 4.8 0.00 0.03 0.03 81 1016.8
20260506002506 15 262 1.6 4.8 0.00 0.03 0.03 82 1016.6
20260506002212 15 261 1.6 4.8 0.00 0.03 0.03 82 1016.8
20260506002049 15 261 1.6 6.4 0.00 0.03 0.03 82 1016.6
20260506001713 15 256 1.6 6.4 0.00 0.03 0.03 82 1016.9
20260506001536 15 253 1.6 6.4 0.00 0.03 0.03 82 1016.6
20260506001224 15 242 4.8 6.4 0.00 0.03 0.03 82 1016.9
20260506001011 15 227 1.6 6.4 0.00 0.03 0.03 82 1016.7
20260506000724 15 190 3.2 8.0 0.00 0.03 0.03 81 1017.0
20260506000555 15 190 4.8 8.0 0.00 0.03 0.03 81 1016.7
20260506000227 15 193 3.2 8.0 0.00 0.03 0.03 81 1017.0
20260506000037 15 183 3.2 8.0 0.00 0.03 0.03 82 1016.7
20260505235734 15 223 1.6 8.0 0.00 0.03 0.03 81 1017.1
20260505235559 15 235 1.6 8.0 0.00 0.03 0.03 81 1016.8
20260505235235 15 216 4.8 8.0 0.00 0.03 0.03 80 1017.1
20260505235020 15 267 0.0 6.4 0.00 0.03 0.03 81 1016.9
20260505234723 15 268 3.2 6.4 0.00 0.03 0.03 82 1017.1
20260505234502 15 288 3.2 9.7 0.00 0.03 0.03 81 1016.9
20260505234224 15 309 3.2 9.7 0.00 0.03 0.03 81 1017.2
20260505234045 15 221 1.6 9.7 0.00 0.03 0.03 83 1016.9
20260505233726 15 259 3.2 9.7 0.00 0.03 0.03 81 1017.2
20260505233527 15 257 3.2 9.7 0.00 0.03 0.03 82 1016.9
20260505233234 15 233 4.8 6.4 0.00 0.03 0.03 82 1017.3
20260505233008 15 217 0.0 4.8 0.00 0.03 0.03 82 1017.0
20260505232714 15 250 1.6 4.8 0.00 0.03 0.03 84 1017.3
20260505232530 15 248 0.0 6.4 0.00 0.03 0.03 83 1017.0
20260505232242 15 246 3.2 6.4 0.00 0.03 0.03 81 1017.3
20260505232052 15 246 1.6 6.4 0.00 0.03 0.03 81 1017.0
20260505231722 15 245 3.2 6.4 0.00 0.03 0.03 81 1017.3
20260505231537 15 263 1.6 6.4 0.00 0.03 0.03 82 1017.0
20260505231231 15 271 1.6 4.8 0.00 0.03 0.03 82 1017.3
20260505231014 15 300 1.6 4.8 0.00 0.03 0.03 82 1017.0
20260505230711 15 310 1.6 4.8 0.00 0.03 0.03 83 1017.3
20260505230537 15 311 1.6 8.0 0.00 0.03 0.03 82 1017.1
20260505230218 15 296 3.2 8.0 0.00 0.03 0.03 82 1017.3
20260505225720 15 275 4.8 9.7 0.00 0.03 0.03 83 1017.4
20260505225543 15 213 4.8 12.9 0.00 0.03 0.03 83 1017.1
20260505225246 15 240 3.2 12.9 0.00 0.03 0.03 83 1017.4
20260505225002 15 244 4.8 12.9 0.00 0.03 0.03 82 1017.3
20260505224710 15 213 6.4 12.9 0.00 0.03 0.03 82 1017.5
20260505224548 15 248 1.6 6.4 0.00 0.03 0.03 82 1017.3
20260505224211 15 259 0.0 8.0 0.00 0.03 0.03 81 1017.5
20260505224027 15 259 1.6 8.0 0.00 0.03 0.03 81 1017.2
20260505223721 15 329 3.2 8.0 0.00 0.03 0.03 81 1017.6
20260505223508 15 315 4.8 8.0 0.00 0.03 0.03 82 1017.3
20260505223222 15 271 3.2 8.0 0.00 0.03 0.03 80 1017.6
20260505223053 15 271 3.2 8.0 0.00 0.03 0.03 81 1017.3
20260505222725 15 227 3.2 8.0 0.00 0.03 0.03 81 1017.6
20260505222513 15 227 4.8 8.0 0.00 0.03 0.03 82 1017.3
20260505222247 15 221 4.8 8.0 0.00 0.03 0.03 80 1017.6
20260505222035 15 221 3.2 8.0 0.00 0.03 0.03 81 1017.3
20260505221734 15 228 1.6 4.8 0.00 0.03 0.03 82 1017.5
20260505221516 15 228 0.0 8.0 0.00 0.03 0.03 81 1017.3
20260505221215 15 228 1.6 8.0 0.00 0.03 0.03 82 1017.5
20260505221059 15 228 1.6 8.0 0.00 0.03 0.03 83 1017.3
20260505220717 15 229 4.8 8.0 0.00 0.03 0.03 83 1017.6
20260505220541 15 233 1.6 6.4 0.00 0.03 0.03 83 1017.3
20260505220245 15 234 3.2 6.4 0.00 0.03 0.03 82 1017.6
20260505220002 15 218 1.6 6.4 0.00 0.03 0.03 84 1017.2
20260505215747 15 251 3.2 4.8 0.00 0.03 0.03 84 1017.6
20260505215527 14 277 0.0 6.4 0.00 0.03 0.03 84 1017.3
20260505215213 15 277 1.6 6.4 0.00 0.03 0.03 83 1017.6
20260505215043 14 238 0.0 6.4 0.00 0.03 0.03 85 1017.3
20260505214210 15 360 4.8 6.4 0.00 0.03 0.03 83 1017.7
20260505214100 14 355 3.2 6.4 0.00 0.03 0.03 83 1017.5
20260505213712 15 318 1.6 4.8 0.00 0.03 0.03 85 1017.7
20260505213540 14 294 1.6 4.8 0.00 0.03 0.03 85 1017.5
20260505213213 14 309 1.6 4.8 0.00 0.03 0.03 85 1017.8
20260505213023 14 273 1.6 6.4 0.00 0.03 0.03 85 1017.5
20260505212722 14 273 1.6 6.4 0.00 0.03 0.03 85 1017.9
20260505212504 14 265 1.6 6.4 0.00 0.03 0.03 85 1017.6
20260505212223 14 237 3.2 8.0 0.00 0.03 0.03 85 1017.9
20260505212048 14 250 1.6 8.0 0.00 0.03 0.03 85 1017.6
20260505211724 14 254 4.8 8.0 0.00 0.03 0.03 85 1017.8
20260505211528 14 292 3.2 8.0 0.00 0.03 0.03 84 1017.6
20260505211234 15 254 3.2 9.7 0.00 0.03 0.03 85 1017.8
20260505211052 14 316 1.6 9.7 0.00 0.03 0.03 85 1017.6
20260505210714 14 277 3.2 9.7 0.00 0.03 0.03 85 1017.9
20260505210513 14 219 4.8 6.4 0.00 0.03 0.03 84 1017.6
20260505210222 15 199 1.6 4.8 0.00 0.03 0.03 84 1017.9
20260505210056 14 235 1.6 4.8 0.00 0.03 0.03 84 1017.6
20260505205724 15 202 0.0 4.8 0.00 0.03 0.03 85 1017.9
20260505205539 14 202 0.0 4.8 0.00 0.03 0.03 85 1017.6
20260505205232 14 202 3.2 4.8 0.00 0.03 0.03 85 1017.9
20260505205023 14 194 0.0 3.2 0.00 0.03 0.03 86 1017.7
20260505204714 14 194 1.6 3.2 0.00 0.03 0.03 85 1018.0
20260505204501 14 194 1.6 3.2 0.00 0.03 0.03 85 1017.7
20260505204215 14 194 1.6 3.2 0.00 0.03 0.03 85 1018.0
20260505204044 14 194 1.6 4.8 0.00 0.03 0.03 86 1017.7
20260505203716 14 194 0.0 4.8 0.00 0.03 0.03 86 1018.1
20260505203526 13 194 0.0 4.8 0.00 0.03 0.03 86 1017.7
20260505203225 14 194 3.2 4.8 0.00 0.03 0.03 86 1017.9
20260505203007 13 171 0.0 1.6 0.00 0.03 0.03 86 1017.6
20260505202726 14 235 1.6 4.8 0.00 0.03 0.03 86 1018.0
20260505202550 13 234 0.0 4.8 0.00 0.03 0.03 86 1017.7
20260505202227 13 234 0.0 4.8 0.00 0.03 0.03 87 1018.0
20260505202031 13 234 1.6 4.8 0.00 0.03 0.03 86 1017.7
20260505201736 14 236 3.2 4.8 0.00 0.03 0.03 87 1017.9
20260505201515 13 246 1.6 4.8 0.00 0.03 0.03 87 1017.6
20260505201217 14 248 1.6 3.2 0.00 0.03 0.03 86 1017.9
20260505201056 13 248 0.0 3.2 0.00 0.03 0.03 87 1017.6
20260505200718 14 248 1.6 3.2 0.00 0.03 0.03 87 1018.0
20260505200538 13 248 0.0 1.6 0.00 0.03 0.03 87 1017.7
20260505200220 13 248 0.0 1.6 0.00 0.03 0.03 87 1018.0
20260505200019 13 248 0.0 1.6 0.00 0.03 0.03 87 1017.7
20260505195748 13 248 0.0 1.6 0.00 0.03 0.03 87 1018.0
20260505195544 13 248 0.0 3.2 0.00 0.03 0.03 87 1017.7
20260505195235 13 248 0.0 3.2 0.00 0.03 0.03 87 1018.1
20260505195022 13 248 0.0 4.8 0.00 0.03 0.03 87 1017.7
20260505194738 13 248 1.6 4.8 0.00 0.03 0.03 87 1018.0
20260505194547 13 248 1.6 4.8 0.00 0.03 0.03 87 1017.7
20260505194225 13 231 3.2 4.8 0.00 0.03 0.03 88 1018.0
20260505194008 13 257 0.0 4.8 0.00 0.03 0.03 88 1017.7
20260505193726 13 257 1.6 4.8 0.00 0.03 0.03 87 1018.1
20260505193549 13 257 1.6 4.8 0.00 0.03 0.03 88 1017.7
20260505193227 13 298 1.6 6.4 0.00 0.03 0.03 88 1018.0
20260505193031 13 327 1.6 6.4 0.00 0.03 0.03 88 1017.7
20260505192735 13 309 3.2 6.4 0.00 0.03 0.03 88 1018.1
20260505192519 13 277 1.6 6.4 0.00 0.03 0.03 90 1017.7
20260505192217 13 304 3.2 8.0 0.00 0.03 0.03 90 1018.1
20260505192056 13 270 1.6 9.7 0.00 0.03 0.03 89 1017.7
20260505191719 13 344 3.2 9.7 0.00 0.03 0.03 90 1018.0
20260505191541 13 346 4.8 9.7 0.00 0.03 0.03 89 1017.7
20260505191220 13 344 4.8 9.7 0.00 0.03 0.03 90 1018.0
20260505191019 13 355 1.6 6.4 0.00 0.03 0.03 90 1017.8
20260505190728 13 355 4.8 8.0 0.00 0.03 0.03 89 1018.1
20260505190603 13 341 3.2 8.0 0.00 0.03 0.03 89 1017.8
20260505190210 13 279 3.2 8.0 0.00 0.03 0.03 89 1018.1
20260505190044 13 300 1.6 8.0 0.00 0.03 0.03 89 1017.8
20260505185710 13 284 1.6 4.8 0.00 0.03 0.03 89 1018.1
20260505185524 13 219 1.6 6.4 0.00 0.03 0.03 89 1017.7
20260505185239 13 218 1.6 6.4 0.00 0.03 0.03 89 1018.1
20260505185047 13 205 0.0 6.4 0.00 0.03 0.03 89 1017.7
20260505184719 13 197 4.8 6.4 0.00 0.03 0.03 89 1018.1
20260505184528 13 212 3.2 6.4 0.00 0.03 0.03 90 1017.8
20260505184227 13 221 3.2 6.4 0.00 0.03 0.03 89 1018.1
20260505184009 13 250 1.6 4.8 0.00 0.03 0.03 89 1017.7
20260505183729 13 249 1.6 4.8 0.00 0.03 0.03 89 1018.1
20260505183552 13 249 3.2 6.4 0.00 0.03 0.03 90 1017.8
20260505183231 13 234 3.2 8.0 0.00 0.03 0.03 90 1018.1
20260505183015 12 236 0.0 8.0 0.00 0.03 0.03 89 1017.7
20260505182719 13 235 4.8 8.0 0.00 0.03 0.03 90 1018.0
20260505182557 12 238 3.2 8.0 0.00 0.03 0.03 90 1017.7
20260505182220 13 278 1.6 8.0 0.00 0.03 0.03 90 1018.0
20260505182043 12 276 3.2 8.0 0.00 0.03 0.03 90 1017.7
20260505181722 13 234 4.8 8.0 0.00 0.03 0.03 91 1018.0
20260505181521 12 203 3.2 8.0 0.00 0.03 0.03 91 1017.6
20260505181231 13 196 4.8 8.0 0.00 0.03 0.03 92 1018.0
20260505181002 12 212 4.8 8.0 0.00 0.03 0.03 92 1017.7
20260505180712 12 241 3.2 8.0 0.00 0.03 0.03 92 1018.0
20260505180545 12 243 3.2 8.0 0.00 0.03 0.03 92 1017.6
20260505180240 12 215 4.8 8.0 0.00 0.03 0.03 92 1017.9
20260505180013 12 232 4.8 8.0 0.00 0.03 0.03 92 1017.7
20260505175742 12 219 4.8 8.0 0.00 0.03 0.03 93 1017.9
20260505175529 12 220 3.2 8.0 0.00 0.03 0.03 92 1017.6
20260505175229 12 235 4.8 8.0 0.00 0.03 0.03 93 1017.9
20260505175011 12 267 1.6 6.4 0.00 0.03 0.03 93 1017.6
20260505174710 12 213 3.2 6.4 0.00 0.03 0.03 93 1017.9
20260505174538 12 150 0.0 3.2 0.00 0.03 0.03 93 1017.5
20260505174211 12 150 1.6 4.8 0.00 0.03 0.03 94 1017.9
20260505174015 12 117 0.0 4.8 0.00 0.03 0.03 94 1017.5
20260505173719 12 146 1.6 4.8 0.00 0.03 0.03 94 1017.9
20260505173559 12 146 1.6 4.8 0.00 0.03 0.03 94 1017.5
20260505173221 12 206 1.6 4.8 0.00 0.03 0.03 95 1017.8
20260505173044 12 206 0.0 6.4 0.00 0.03 0.03 95 1017.5
20260505172722 12 207 1.6 6.4 0.00 0.03 0.03 95 1017.7
20260505172521 11 192 1.6 6.4 0.00 0.03 0.03 95 1017.4
20260505172231 12 209 4.8 6.4 0.00 0.03 0.03 95 1017.7
20260505172044 11 230 4.8 6.4 0.00 0.03 0.03 95 1017.4
20260505171711 12 225 3.2 4.8 0.00 0.03 0.03 96 1017.6
20260505171530 11 167 1.6 4.8 0.00 0.03 0.03 96 1017.3
20260505171219 12 194 1.6 3.2 0.00 0.03 0.03 96 1017.6
20260505171009 11 194 0.0 3.2 0.00 0.03 0.03 96 1017.3
20260505170719 12 194 3.2 3.2 0.00 0.03 0.03 96 1017.6
20260505170529 11 195 1.6 4.8 0.00 0.03 0.03 96 1017.3
20260505170227 12 195 1.6 6.4 0.00 0.03 0.03 96 1017.6
20260505170008 11 195 0.0 6.4 0.00 0.03 0.03 96 1017.3
20260505165728 11 195 3.2 6.4 0.00 0.03 0.03 96 1017.6
20260505165552 11 195 3.2 6.4 0.00 0.03 0.03 96 1017.3
20260505165210 11 171 3.2 6.4 0.00 0.03 0.03 97 1017.5
20260505165034 11 208 1.6 3.2 0.00 0.03 0.03 97 1017.3
20260505164717 11 208 1.6 4.8 0.00 0.03 0.03 97 1017.6
20260505164556 11 231 1.6 4.8 0.00 0.03 0.03 97 1017.2
20260505164219 11 231 1.6 6.4 0.00 0.03 0.03 97 1017.5
20260505164038 11 231 1.6 6.4 0.00 0.03 0.03 97 1017.2
20260505163720 11 231 3.2 6.4 0.00 0.03 0.03 97 1017.5
20260505163522 11 232 3.2 8.0 0.00 0.03 0.03 97 1017.1
20260505163229 11 219 1.6 8.0 0.00 0.03 0.03 97 1017.5
20260505163102 11 219 3.2 8.0 0.00 0.03 0.03 97 1017.1
20260505162710 11 238 3.2 6.4 0.00 0.03 0.03 97 1017.3
20260505162544 11 240 1.6 6.4 0.00 0.03 0.03 97 1017.1
20260505162211 11 178 1.6 6.4 0.00 0.03 0.03 97 1017.4
20260505162025 11 178 1.6 6.4 0.00 0.03 0.03 97 1017.1
20260505161720 11 184 3.2 6.4 0.00 0.03 0.03 97 1017.4
20260505161507 11 171 4.8 6.4 0.00 0.03 0.03 97 1016.9
20260505161221 11 168 4.8 8.0 0.00 0.03 0.03 97 1017.4
20260505161030 11 186 3.2 8.0 0.00 0.03 0.03 97 1017.0
20260505160729 11 175 3.2 8.0 0.00 0.03 0.03 97 1017.3
20260505160511 11 213 3.2 9.7 0.00 0.03 0.03 97 1017.0
20260505160251 11 184 6.4 9.7 0.00 0.03 0.03 97 1017.4
20260505153236 11 178 3.2 8.0 0.00 0.03 0.03 97 1017.3
20260505153023 11 202 4.8 8.0 0.00 0.03 0.03 97 1016.9
20260505152717 11 190 4.8 6.4 0.00 0.03 0.03 97 1017.3
20260505152506 11 196 3.2 6.4 0.00 0.03 0.03 97 1016.9
20260505152218 11 194 3.2 6.4 0.00 0.03 0.03 97 1017.2
20260505152050 11 184 3.2 6.4 0.00 0.03 0.03 97 1016.9
20260505151726 11 192 3.2 4.8 0.00 0.03 0.03 97 1017.2
20260505151513 11 194 1.6 4.8 0.00 0.03 0.03 97 1016.8
20260505151227 11 202 1.6 4.8 0.00 0.03 0.03 97 1017.2
20260505151051 11 180 1.6 4.8 0.00 0.03 0.03 97 1016.9
20260505150716 11 180 3.2 4.8 0.00 0.03 0.03 97 1017.2
20260505150539 11 182 3.2 4.8 0.00 0.03 0.03 97 1016.8
20260505140601 10 164 0.0 3.2 0.03 0.03 0.03 97 1016.2
20260505140228 11 164 0.0 3.2 0.03 0.03 0.03 97 1016.5
20260505130220 11 189 0.0 3.2 0.00 0.00 0.00 96 1016.2
20260505130157 10 189 0.0 3.2 0.00 0.00 0.00 96 1015.9
20260505124713 11 189 1.6 3.2 0.00 0.00 0.00 96 1016.2
20260505124540 10 189 1.6 3.2 0.00 0.00 0.00 96 1015.8
20260505124225 11 180 1.6 3.2 0.00 0.00 0.00 96 1016.2
20260505124032 10 180 1.6 3.2 0.00 0.00 0.00 96 1015.8
20260505123733 11 180 1.6 4.8 0.00 0.00 0.00 96 1016.2
20260505123553 10 180 1.6 4.8 0.00 0.00 0.00 96 1015.8
20260505123213 11 180 1.6 4.8 0.00 0.00 0.00 96 1016.3
20260505123035 10 180 1.6 4.8 0.00 0.00 0.00 96 1015.8
20260505122745 11 180 1.6 3.2 0.00 0.00 0.00 96 1016.3
20260505122504 10 180 0.0 3.2 0.00 0.00 0.00 96 1015.8
20260505122225 11 180 1.6 3.2 0.00 0.00 0.00 96 1016.2
20260505122022 10 180 1.6 3.2 0.00 0.00 0.00 96 1015.9
20260505121716 11 180 1.6 3.2 0.00 0.00 0.00 96 1016.2
20260505121615 10 180 0.0 3.2 0.00 0.00 0.00 96 1015.8
20260505121230 11 180 1.6 3.2 0.00 0.00 0.00 96 1016.2
20260505121046 10 180 0.0 3.2 0.00 0.00 0.00 96 1015.8
20260505120712 11 180 0.0 3.2 0.00 0.00 0.00 95 1016.2
20260505120531 10 180 0.0 3.2 0.00 0.00 0.00 95 1015.8
20260505120221 11 180 0.0 3.2 0.00 0.00 0.00 95 1016.2
20260505120008 10 180 0.0 3.2 0.00 0.00 0.00 95 1015.8
20260505115716 11 180 1.6 3.2 0.00 0.00 0.00 95 1016.1
20260505115543 10 180 1.6 3.2 0.00 0.00 0.00 95 1015.7
20260505115221 11 180 1.6 3.2 0.00 0.00 0.00 95 1016.1
20260505115057 10 180 0.0 3.2 0.00 0.00 0.00 95 1015.7
20260505114714 11 180 1.6 3.2 0.00 0.00 0.00 95 1016.1
20260505114536 11 180 1.6 3.2 0.00 0.00 0.00 95 1015.7
20260505114215 11 180 1.6 3.2 0.00 0.00 0.00 95 1016.0
20260505114020 11 180 1.6 3.2 0.00 0.00 0.00 95 1015.6
20260505113720 11 180 1.6 3.2 0.00 0.00 0.00 95 1016.0
20260505113659 11 180 0.0 3.2 0.00 0.00 0.00 95 1015.6
20260505113217 11 180 1.6 4.8 0.00 0.00 0.00 94 1016.1
20260505113054 11 180 0.0 4.8 0.00 0.00 0.00 94 1015.7
20260505112744 11 180 3.2 4.8 0.00 0.00 0.00 94 1016.1
20260505112509 11 180 1.6 4.8 0.00 0.00 0.00 94 1015.7
20260505112220 11 180 1.6 3.2 0.00 0.00 0.00 94 1016.0
20260505112051 11 180 1.6 3.2 0.00 0.00 0.00 94 1015.6
20260505111720 11 180 1.6 1.6 0.00 0.00 0.00 94 1016.1
20260505111526 11 180 0.0 1.6 0.00 0.00 0.00 94 1015.7
20260505111218 11 180 0.0 3.2 0.00 0.00 0.00 94 1016.1
20260505111105 11 180 0.0 3.2 0.00 0.00 0.00 94 1015.6
20260505110710 11 180 0.0 3.2 0.00 0.00 0.00 94 1016.0
20260505110538 11 180 0.0 3.2 0.00 0.00 0.00 94 1015.6
20260505110238 11 180 1.6 3.2 0.00 0.00 0.00 94 1016.0
20260505102221 11 180 0.0 1.6 0.00 0.00 0.00 94 1015.6
20260505102025 10 180 0.0 1.6 0.00 0.00 0.00 94 1015.1
20260505101800 11 180 0.0 3.2 0.00 0.00 0.00 94 1015.5
20260505101625 10 180 0.0 3.2 0.00 0.00 0.00 94 1015.1
20260505101225 11 180 1.6 3.2 0.00 0.00 0.00 94 1015.5
20260505101010 10 180 0.0 3.2 0.00 0.00 0.00 94 1015.1
20260505100714 11 180 0.0 1.6 0.00 0.00 0.00 94 1015.6
20260505100553 10 180 0.0 1.6 0.00 0.00 0.00 94 1015.2
20260505100216 11 180 0.0 3.2 0.00 0.00 0.00 94 1015.5
20260505100055 10 180 0.0 3.2 0.00 0.00 0.00 94 1015.1
20260505095718 11 180 0.0 3.2 0.00 0.00 0.00 94 1015.6
20260505095517 10 180 0.0 4.8 0.00 0.00 0.00 94 1015.1
20260505095226 11 180 1.6 4.8 0.00 0.00 0.00 94 1015.6
20260505095100 10 180 0.0 4.8 0.00 0.00 0.00 94 1015.2
20260505094727 11 180 3.2 4.8 0.00 0.00 0.00 94 1015.6
20260505094541 10 180 1.6 4.8 0.00 0.00 0.00 94 1015.1
20260505094236 11 180 3.2 4.8 0.00 0.00 0.00 94 1015.5
20260505094022 10 180 1.6 4.8 0.00 0.00 0.00 94 1015.1
20260505093717 11 180 3.2 4.8 0.00 0.00 0.00 94 1015.4
20260505093504 10 176 1.6 3.2 0.00 0.00 0.00 94 1015.0
20260505093218 11 176 1.6 3.2 0.00 0.00 0.00 94 1015.5
20260505093059 10 176 0.0 4.8 0.00 0.00 0.00 94 1015.0
20260505092720 11 176 1.6 4.8 0.00 0.00 0.00 94 1015.4
20260505092529 10 176 0.0 4.8 0.00 0.00 0.00 94 1015.0
20260505092229 11 176 1.6 4.8 0.00 0.00 0.00 94 1015.3
20260505092008 10 176 0.0 4.8 0.00 0.00 0.00 94 1014.9
20260505091747 11 176 3.2 4.8 0.00 0.00 0.00 94 1015.3
20260505091530 10 176 1.6 3.2 0.00 0.00 0.00 94 1014.9
20260505091235 11 176 1.6 4.8 0.00 0.00 0.00 94 1015.2
20260505091053 10 176 1.6 4.8 0.00 0.00 0.00 94 1014.7
20260505090715 11 176 3.2 0.0 0.00 0.00 0.00 94 1014.9
20260505090531 10 176 1.6 4.8 0.00 0.00 0.00 94 1014.8
20260505090213 11 178 1.6 6.4 0.00 0.00 0.00 94 1015.1
20260505090012 10 178 1.6 6.4 0.00 0.00 0.00 94 1014.8
20260505085739 11 178 4.8 6.4 0.00 0.00 0.00 94 1015.2
20260505085541 10 188 3.2 8.0 0.00 0.00 0.00 94 1014.7
20260505085224 11 182 3.2 8.0 0.00 0.00 0.00 94 1015.2
20260505085022 10 186 3.2 8.0 0.00 0.00 0.00 94 1014.8
20260505084716 11 177 4.8 8.0 0.00 0.00 0.00 94 1015.2
20260505084505 10 188 3.2 6.4 0.00 0.00 0.00 94 1014.8
20260505084218 11 176 4.8 6.4 0.00 0.00 0.00 94 1015.1
20260505084047 10 182 4.8 6.4 0.00 0.00 0.00 94 1014.7
20260505083719 11 165 3.2 6.4 0.00 0.00 0.00 94 1015.2
20260505083528 10 172 3.2 6.4 0.00 0.00 0.00 94 1014.7
20260505083228 10 174 4.8 6.4 0.00 0.00 0.00 94 1015.2
20260505083012 10 177 3.2 8.0 0.00 0.00 0.00 94 1014.6
20260505082709 10 179 4.8 8.0 0.00 0.00 0.00 94 1015.1
20260505082553 10 175 3.2 8.0 0.00 0.00 0.00 94 1014.6
20260505082211 10 190 3.2 8.0 0.00 0.00 0.00 94 1015.1
20260505082035 10 186 4.8 8.0 0.00 0.00 0.00 94 1014.6
20260505081712 10 184 3.2 6.4 0.00 0.00 0.00 94 1014.9
20260505081517 10 173 3.2 6.4 0.00 0.00 0.00 94 1014.5
20260505081221 10 178 3.2 6.4 0.00 0.00 0.00 94 1014.9
20260505081100 10 175 3.2 8.0 0.00 0.00 0.00 94 1014.5
20260505080722 10 160 4.8 8.0 0.00 0.00 0.00 94 1015.0
20260505080547 10 176 3.2 8.0 0.00 0.00 0.00 94 1014.5
20260505080230 10 173 3.2 8.0 0.00 0.00 0.00 94 1015.0
20260505080002 10 182 3.2 8.0 0.00 0.00 0.00 94 1014.5
20260505075711 10 178 3.2 8.0 0.00 0.00 0.00 93 1014.9
20260505075545 10 177 3.2 8.0 0.00 0.00 0.00 93 1014.4
20260505075219 10 164 1.6 6.4 0.00 0.00 0.00 93 1014.9
20260505075010 10 164 3.2 6.4 0.00 0.00 0.00 92 1014.5
20260505074720 10 211 1.6 3.2 0.00 0.00 0.00 92 1014.8
20260505074549 10 211 0.0 3.2 0.00 0.00 0.00 92 1014.4
20260505074222 10 211 1.6 3.2 0.00 0.00 0.00 92 1014.7
20260505074032 10 211 1.6 3.2 0.00 0.00 0.00 92 1014.2
20260505073729 10 229 0.0 3.2 0.00 0.00 0.00 92 1014.6
20260505073511 10 229 0.0 3.2 0.00 0.00 0.00 92 1014.1
20260505073210 10 229 1.6 3.2 0.00 0.00 0.00 91 1014.5
20260505073058 10 229 0.0 3.2 0.00 0.00 0.00 91 1014.0
20260505072711 10 229 1.6 3.2 0.00 0.00 0.00 91 1014.4
20260505072535 10 229 0.0 4.8 0.00 0.00 0.00 91 1013.9
20260505072213 11 245 0.0 4.8 0.00 0.00 0.00 91 1014.3
20260505072017 10 245 0.0 4.8 0.00 0.00 0.00 91 1013.8
20260505071721 11 245 1.6 4.8 0.00 0.00 0.00 90 1014.3
20260505071601 10 235 0.0 4.8 0.00 0.00 0.00 90 1013.7
20260505071224 11 231 1.6 4.8 0.00 0.00 0.00 90 1014.2
20260505071039 10 232 0.0 1.6 0.00 0.00 0.00 89 1013.7
20260505070722 11 232 0.0 1.6 0.00 0.00 0.00 89 1014.2
20260505070520 11 286 0.0 1.6 0.00 0.00 0.00 89 1013.6
20260505070230 11 286 1.6 3.2 0.00 0.00 0.00 89 1014.2
20260505070002 11 286 0.0 3.2 0.00 0.00 0.00 89 1013.6
20260505065712 11 286 1.6 3.2 0.00 0.00 0.00 88 1014.1
20260505065545 11 286 0.0 3.2 0.00 0.00 0.00 89 1013.5
20260505065213 11 286 1.6 3.2 0.00 0.00 0.00 88 1014.0
20260505065026 11 286 0.0 1.6 0.00 0.00 0.00 88 1013.5
20260505064722 11 286 0.0 1.6 0.00 0.00 0.00 88 1014.0
20260505064513 11 286 0.0 3.2 0.00 0.00 0.00 88 1013.4
20260505064223 12 286 0.0 9.7 0.00 0.00 0.00 88 1014.0
20260505064051 11 286 0.0 9.7 0.00 0.00 0.00 88 1013.3
20260505063725 12 286 0.0 9.7 0.00 0.00 0.00 88 1013.8
20260505063533 11 286 1.6 9.7 0.00 0.00 0.00 88 1013.3
20260505063233 12 268 3.2 9.7 0.00 0.00 0.00 87 1013.7
20260505063014 12 226 1.6 6.4 0.00 0.00 0.00 87 1013.1
20260505062714 12 244 1.6 4.8 0.00 0.00 0.00 86 1013.7
20260505062557 12 185 0.0 3.2 0.00 0.00 0.00 86 1013.1
20260505062216 12 185 1.6 4.8 0.00 0.00 0.00 86 1013.6
20260505062038 12 185 0.0 6.4 0.00 0.00 0.00 86 1013.0
20260505061745 12 185 1.6 6.4 0.00 0.00 0.00 86 1013.6
20260505061602 12 185 1.6 6.4 0.00 0.00 0.00 86 1013.0
20260505061225 12 178 1.6 4.8 0.00 0.00 0.00 86 1013.5
20260505061024 12 217 1.6 4.8 0.00 0.00 0.00 86 1013.0
20260505060734 13 191 3.2 6.4 0.00 0.00 0.00 85 1013.5
20260505060506 12 196 3.2 6.4 0.00 0.00 0.00 85 1012.9
20260505060215 13 207 3.2 6.4 0.00 0.00 0.00 85 1013.3
20260505060048 12 178 4.8 6.4 0.00 0.00 0.00 85 1012.8
20260505055716 13 192 3.2 6.4 0.00 0.00 0.00 85 1013.3
20260505055530 13 178 1.6 6.4 0.00 0.00 0.00 85 1012.8
20260505055224 13 190 1.6 6.4 0.00 0.00 0.00 84 1013.3
20260505055013 13 172 1.6 4.8 0.00 0.00 0.00 84 1012.8
20260505054725 13 159 3.2 4.8 0.00 0.00 0.00 84 1013.3
20260505054538 13 163 1.6 6.4 0.00 0.00 0.00 84 1012.7
20260505054233 13 145 1.6 4.8 0.00 0.00 0.00 84 1013.4
20260505054012 13 145 1.6 4.8 0.00 0.00 0.00 84 1012.7
20260505053711 13 159 1.6 4.8 0.00 0.00 0.00 83 1013.3
20260505053555 13 159 1.6 4.8 0.00 0.00 0.00 83 1012.8
20260505053213 13 150 1.6 4.8 0.00 0.00 0.00 83 1013.3
20260505053041 13 150 1.6 4.8 0.00 0.00 0.00 83 1012.7
20260505052714 14 190 1.6 4.8 0.00 0.00 0.00 82 1013.3
20260505052517 13 215 1.6 4.8 0.00 0.00 0.00 82 1012.8
20260505052222 14 343 0.0 3.2 0.00 0.00 0.00 82 1013.3
20260505052100 14 342 0.0 3.2 0.00 0.00 0.00 82 1012.7
20260505051724 14 342 1.6 3.2 0.00 0.00 0.00 81 1013.3
20260505051543 14 342 1.6 3.2 0.00 0.00 0.00 81 1012.7
20260505051232 15 327 1.6 3.2 0.00 0.00 0.00 80 1013.2
20260505051002 14 327 0.0 3.2 0.00 0.00 0.00 80 1012.6
20260505050713 15 327 1.6 3.2 0.00 0.00 0.00 80 1013.1
20260505050545 15 327 0.0 3.2 0.00 0.00 0.00 79 1012.5
20260505050214 15 322 1.6 3.2 0.00 0.00 0.00 79 1013.0
20260505041713 17 225 1.6 6.4 0.00 0.00 0.00 72 1012.8
20260505041544 16 225 1.6 6.4 0.00 0.00 0.00 72 1012.2
20260505041243 17 243 3.2 9.7 0.00 0.00 0.00 71 1012.7
20260505041006 17 247 3.2 9.7 0.00 0.00 0.00 71 1012.0
20260505040739 17 234 4.8 9.7 0.00 0.00 0.00 71 1012.6
20260505040528 17 335 3.2 8.0 0.00 0.00 0.00 71 1012.0
20260505040248 17 320 4.8 9.7 0.00 0.00 0.00 71 1012.5
20260505040052 17 292 3.2 12.9 0.00 0.00 0.00 71 1011.9
20260505035728 17 316 3.2 17.7 0.00 0.00 0.00 71 1012.4
20260505035533 17 350 3.2 17.7 0.00 0.00 0.00 71 1011.8
20260505035233 17 311 8.0 17.7 0.00 0.00 0.00 71 1012.4
20260505035011 17 341 4.8 12.9 0.00 0.00 0.00 71 1011.7
20260505034714 17 327 3.2 8.0 0.00 0.00 0.00 71 1012.4
20260505034555 17 329 1.6 4.8 0.00 0.00 0.00 72 1011.7
20260505034236 17 15 1.6 4.8 0.00 0.00 0.00 71 1012.2
20260505034015 17 15 0.0 4.8 0.00 0.00 0.00 71 1011.5
20260505033724 18 15 3.2 4.8 0.00 0.00 0.00 70 1012.2
20260505033559 17 12 0.0 3.2 0.00 0.00 0.00 69 1011.5
20260505033231 18 315 0.0 4.8 0.00 0.00 0.00 69 1012.1
20260505033019 18 315 0.0 6.4 0.00 0.00 0.00 69 1011.4
20260505032713 18 315 1.6 6.4 0.00 0.00 0.00 68 1012.1
20260505032605 18 315 1.6 6.4 0.00 0.00 0.00 68 1011.4
20260505032214 18 323 3.2 8.0 0.00 0.00 0.00 67 1012.0
20260505032043 18 338 3.2 12.9 0.00 0.00 0.00 67 1011.3
20260505031715 18 331 4.8 12.9 0.00 0.00 0.00 67 1011.9
20260505031536 18 334 3.2 12.9 0.00 0.00 0.00 66 1011.2
20260505031224 19 277 6.4 12.9 0.00 0.00 0.00 66 1012.0
20260505031011 19 315 1.6 9.7 0.00 0.00 0.00 65 1011.3
20260505030725 19 280 4.8 11.3 0.00 0.00 0.00 65 1012.0
20260505030554 19 314 3.2 11.3 0.00 0.00 0.00 65 1011.2
20260505030254 20 332 4.8 12.9 0.00 0.00 0.00 65 1011.9
20260505030011 19 284 3.2 12.9 0.00 0.00 0.00 65 1011.2
20260505025715 20 285 6.4 12.9 0.00 0.00 0.00 65 1011.8
20260505025555 20 262 4.8 12.9 0.00 0.00 0.00 65 1011.1
20260505025216 20 273 3.2 11.3 0.00 0.00 0.00 65 1011.7
20260505025036 20 320 1.6 11.3 0.00 0.00 0.00 66 1011.0
20260505024718 20 270 4.8 14.5 0.00 0.00 0.00 65 1011.6
20260505024517 20 257 3.2 14.5 0.00 0.00 0.00 65 1010.9
20260505024246 21 305 4.8 14.5 0.00 0.00 0.00 65 1011.6
20260505024040 20 312 4.8 14.5 0.00 0.00 0.00 65 1010.8
20260505023734 21 268 3.2 11.3 0.00 0.00 0.00 66 1011.5
20260505023521 21 305 3.2 8.0 0.00 0.00 0.00 65 1010.8
20260505023235 21 279 3.2 9.7 0.00 0.00 0.00 65 1011.4
20260505023050 21 15 3.2 9.7 0.00 0.00 0.00 65 1010.7
20260505022741 21 15 3.2 9.7 0.00 0.00 0.00 65 1011.5
20260505022503 21 15 4.8 9.7 0.00 0.00 0.00 64 1010.7
20260505022222 22 15 3.2 9.7 0.00 0.00 0.00 63 1011.5
20260505022049 21 14 3.2 9.7 0.00 0.00 0.00 63 1010.8
20260505021723 22 14 3.2 12.9 0.00 0.00 0.00 63 1011.6
20260505021533 21 15 3.2 12.9 0.00 0.00 0.00 63 1010.8
20260505021232 22 13 3.2 14.5 0.00 0.00 0.00 63 1011.5
20260505021012 21 15 4.8 14.5 0.00 0.00 0.00 62 1010.8
20260505020713 22 15 3.2 14.5 0.00 0.00 0.00 63 1011.5
20260505020553 22 15 4.8 14.5 0.00 0.00 0.00 64 1010.8
20260505020214 22 15 3.2 9.7 0.00 0.00 0.00 64 1011.5
20260505020038 22 15 3.2 12.9 0.00 0.00 0.00 64 1010.8
20260505015716 22 14 4.8 12.9 0.00 0.00 0.00 64 1011.6
20260505015516 22 14 4.8 12.9 0.00 0.00 0.00 64 1010.9
20260505015224 22 259 8.0 12.9 0.00 0.00 0.00 64 1011.6
20260505015059 22 232 6.4 11.3 0.00 0.00 0.00 64 1010.8
20260505014726 22 202 6.4 11.3 0.00 0.00 0.00 64 1011.5
20260505014542 22 271 3.2 12.9 0.00 0.00 0.00 63 1010.8
20260505014234 22 13 3.2 12.9 0.00 0.00 0.00 62 1011.5
20260505014023 22 14 1.6 12.9 0.00 0.00 0.00 63 1010.8
20260505013716 22 15 4.8 12.9 0.00 0.00 0.00 64 1011.7
20260505013503 22 253 3.2 11.3 0.00 0.00 0.00 63 1010.9
20260505013217 22 234 6.4 11.3 0.00 0.00 0.00 64 1011.6
20260505013047 22 219 6.4 12.9 0.00 0.00 0.00 62 1010.8
20260505012719 22 14 4.8 11.3 0.00 0.00 0.00 63 1011.6
20260505012529 22 239 4.8 11.3 0.00 0.00 0.00 63 1010.9
20260505012228 22 14 3.2 12.9 0.00 0.00 0.00 63 1011.7
20260505012010 22 14 3.2 12.9 0.00 0.00 0.00 62 1010.9
20260505011729 22 14 8.0 14.5 0.00 0.00 0.00 63 1011.7
20260505011554 22 217 8.0 14.5 0.00 0.00 0.00 66 1010.9
20260505011257 22 13 9.7 16.1 0.00 0.00 0.00 64 1011.7
20260505011014 22 252 4.8 16.1 0.00 0.00 0.00 64 1010.9
20260505010738 22 13 4.8 16.1 0.00 0.00 0.00 65 1011.7
20260505010539 22 11 8.0 16.1 0.00 0.00 0.00 64 1011.0
20260505010216 22 12 6.4 14.5 0.00 0.00 0.00 65 1011.7
20260505010026 22 15 6.4 14.5 0.00 0.00 0.00 62 1011.0
20260505005724 22 253 8.0 14.5 0.00 0.00 0.00 63 1011.8
20260505005559 22 12 8.0 14.5 0.00 0.00 0.00 64 1011.1
20260505005231 22 210 8.0 12.9 0.00 0.00 0.00 65 1011.7
20260505005019 22 232 4.8 12.9 0.00 0.00 0.00 64 1011.0
20260505004711 22 220 4.8 12.9 0.00 0.00 0.00 66 1011.8
20260505004600 22 240 4.8 12.9 0.00 0.00 0.00 65 1011.0
20260505004212 22 205 8.0 14.5 0.00 0.00 0.00 65 1011.8
20260505004042 22 13 4.8 14.5 0.00 0.00 0.00 67 1011.1
20260505003720 22 234 8.0 17.7 0.00 0.00 0.00 65 1011.8
20260505003502 22 13 6.4 17.7 0.00 0.00 0.00 66 1011.1